Miscellaneous Local Product
Issued by NWS North Platte, NE

Home | Current Version | Previous Version | Graphics & Text | Print | Product List | Glossary On
Versions: 1 2 3 4 5 6 7 8 9 10 11 12 13 14 15 16 17 18 19 20 21 22 23 24 25 26 27 28 29 30 31 32 33 34 35 36 37 38 39 40 41 42 43 44 45 46 47 48 49 50
000
AXUS43 KLBF 230310
MISLBF


WESTERN AND NORTH CENTRAL NEBRASKA HOURLY WEATHER ROUNDUP
NATIONAL WEATHER SERVICE NORTH PLATTE NE
1000 PM CDT MON AUG 22 2016

NOTE: "FAIR" INDICATES FEW OR NO CLOUDS BELOW 12,000 FEET WITH NO
SIGNIFICANT WEATHER AND/OR OBSTRUCTIONS TO VISIBILITY.

NOTE: STATIONS NOT REPORTING VARIABLES SUCH AS SKY/WEATHER OR
PRESSURE ARE PROVIDED BY RAWS AND APRS NETWORKS AND ARE NOT UNDER
NATIONAL WEATHER SERVICE QUALITY CONTROL.

...OBSERVATIONS IN AND NEAR THE EASTERN PANHANDLE OF NEBRASKA...

CITY           SKY/WX    TMP DP  RH WIND       PRES   REMARKS
PINE RIDGE     PTCLDY    81  55  40 S20G30    29.76R
CHADRON        PTCLDY    82  51  34 S21       29.74R
ALLIANCE       PTCLDY    72  55  55 S12       29.84R
SIDNEY         PTCLDY    70  55  59 S10       29.91R
CRESCENT LAKE    N/A     72  56  57 S6          N/A
$$

...OBSERVATIONS IN NORTHERN NEBRASKA AND FAR SOUTHERN SOUTH DAKOTA...

CITY           SKY/WX    TMP DP  RH WIND       PRES   REMARKS
WINNER         FAIR      84  60  44 S21G32    29.73R
VALENTINE      CLOUDY    81  56  42 S15       29.80R
THEDFORD       CLOUDY    78  60  53 S15       29.87R
AINSWORTH      PTCLDY    78  60  53 S18G24    29.83R
O`NEILL        MOCLDY    77  59  53 S15G24    29.87R
ORD            PTCLDY    75  59  57 S13       29.89R
BROKEN BOW     MOCLDY    75  60  59 S12       29.90R
VALENTINE NWR    N/A     80  57  45 S13G22      N/A
BUTTE            N/A     77  63  62 S13G20      N/A
HALSEY           N/A     79  58  47 S9G20       N/A
EWING            N/A     73  63  71 S6          N/A
$$

...OBSERVATIONS IN SOUTHWEST NEBRASKA AND FAR NORTHEAST COLORADO...

CITY           SKY/WX    TMP DP  RH WIND       PRES   REMARKS
HOLYOKE        FAIR      77  59  53 SE12      29.89R
IMPERIAL       PTCLDY    78  57  48 SE16      29.89R
OGALLALA       PTCLDY    79  56  44 S10G16    29.87R
NORTH PLATTE   MOCLDY    80  58  46 S15G22    29.87R
MCCOOK         CLOUDY    78  57  48 S13G20    29.89R
LEXINGTON      CLOUDY    76  59  55 S12G20    29.92R
STAPLETON        N/A     72  61  68 CALM        N/A
GOTHENBURG       N/A     77  58  51 SE6         N/A
CALLAWAY         N/A     72  62  72 S14         N/A
$$

...OBSERVATIONS IN CENTRAL LINCOLN COUNTY AREA...

CITY           SKY/WX    TMP DP  RH WIND       PRES   REMARKS
N.P. AIRPORT   MOCLDY    80  58  46 S15G22    29.87R
N.P. DOWNTOWN    N/A     80  61  52 S5G13       N/A
N.P. SOUTHEAST   N/A     80  61  51 S8          N/A
N.P. HILLCREST   N/A     78  60  54 S12         N/A
$$

...SOME OBSERVATIONS FROM AROUND THE REGION...

CITY           SKY/WX    TMP DP  RH WIND       PRES   REMARKS
DENVER         MOCLDY    73  41  31 W9        29.99R
LARAMIE        CLOUDY    61  39  44 SW14G22   30.13R
CHEYENNE       CLOUDY    69  37  30 W9        30.03R
SCOTTSBLUFF    CLEAR     68  56  65 E5        29.85R
RAPID CITY     CLOUDY    62  48  60 CALM      29.69R
BISMARCK       CLEAR     76  70  82 NE10      29.57S
PIERRE         CLOUDY    80  60  50 E12       29.64R
SIOUX FALLS    CLOUDY    76  61  59 S17       29.87R
OMAHA          MOCLDY    75  59  57 S14       29.99R
GRAND ISLAND   CLOUDY    73  59  61 S17G28    29.94R
KANSAS CITY    PTCLDY    69  58  67 SE7       30.07R
WICHITA        PTCLDY    77  59  53 SE13      30.01R
OKLAHOMA CITY  MOCLDY    77  71  82 SE15      30.04R
DALLAS         MOCLDY    80  75  84 SE10      30.06R
AMARILLO       PTCLDY    76  61  59 SE15      30.06R
DODGE CITY     CLEAR     77  54  44 S20       29.98R
HAYS           CLEAR     75  50  41 SE14      29.96R
GOODLAND       CLOUDY    68  62  81 CALM      29.95R THUNDER
$$




USA.gov is the U.S. government's official web portal to all federal, state and local government web resources and services.